This demonstration page uses our WeatherBlox Daily Observations layout. Learn more.

Left ArrowRight Arrow

39.92423, -83.80882

Hourly Observations for August 22, 2019

Temp ( °F °C ) Dew Point ( °F °C ) Humidity (%) Winds ( mph kmh ) Pressure ( in mb ) Visibility ( mi km ) Precip ( " mm )
12:56 am 00:56 Clear 70 21.1 70 21.1 100 100 NW 6 9 29.96 1015 10 16.0934 N/A
1:56 am 01:56 Clear 71 21.7 70 21.1 96 96 NW 6 9 29.96 1014 10 16.0934 N/A
2:56 am 02:56 Clear 69 20.6 69 20.6 100 100 WNW 7 11 29.96 1015 10 16.0934 N/A
3:56 am 03:56 Clear 68 20 68 20 100 100 SSW 5 7 29.95 1014 9 14.48406 N/A
4:56 am 04:56 Clear with Mist and Fog 68 20 68 20 100 100 SSW 6 9 29.96 1014 6 9.65604 N/A
5:56 am 05:56 Mostly Cloudy 69 20.6 69 20.6 100 100 SW 7 11 29.96 1015 8 12.87472 N/A
6:56 am 06:56 Partly Cloudy with Light Rain 69 20.6 69 20.6 100 100 WSW 6 9 29.98 1015 7 11.26538 0.001 0.001
7:10 am 07:10 Mostly Cloudy with Nearby Thunderstorms 70 21 70 21 100 100 SW 8 13 29.98 1015 6 9.65604 0.001 0.001
7:20 am 07:20 Mostly Cloudy with Heavy Thunderstorms 70 21 70 21 100 100 W 17 28 29.99 1016 3 4.82802 0.001 0.001
7:27 am 07:27 Cloudy with Heavy Thunderstorms 70 21 70 21 100 100 W 14 22 29.98 1015 2 3.21868 0.04 1.016
7:35 am 07:35 Cloudy with Light Thunderstorms 70 21 70 21 100 100 WSW 13 20 29.98 1015 7 11.26538 0.07 1.778
7:56 am 07:56 Mostly Cloudy with Nearby Thunderstorms 70 21.1 70 21.1 100 100 W 10 17 29.99 1016 10 16.0934 0.11 2.794
8:08 am 08:08 Mostly Cloudy 70 21 70 21 100 100 N N/A 29.97 1015 10 16.0934 0.02 0.508
8:56 am 08:56 Sunny 70 21.1 70 21.1 100 100 NE 7 11 29.94 1014 10 16.0934 0.03 0.762
9:42 am 09:42 Cloudy 72 22 72 22 100 100 NNW 8 13 29.93 1014 10 16.0934 N/A
9:56 am 09:56 Mostly Cloudy 72 22.2 72 22.2 100 100 NW 8 13 29.96 1014 10 16.0934 N/A
10:56 am 10:56 Sunny 74 23.3 70 21.1 88 88 N N/A 29.98 1015 10 16.0934 N/A
11:56 am 11:56 Mostly Sunny 74 23.3 70 21.1 88 88 WSW 5 7 29.99 1016 10 16.0934 0.001 0.001
12:56 pm 12:56 Mostly Cloudy 75 23.9 70 21.1 84 84 SW 7 11 30 1016 10 16.0934 N/A
1:43 pm 13:43 Cloudy 77 25 68 20 74 74 WSW 10 17 29.97 1015 10 16.0934 N/A
1:51 pm 13:51 Cloudy 75 24 70 21 83 83 WSW 8 13 29.97 1015 10 16.0934 N/A
1:56 pm 13:56 Cloudy 76 24.4 69 20.6 79 79 WSW 8 13 30 1016 10 16.0934 N/A
2:56 pm 14:56 Cloudy 76 24.4 68 20 77 77 WSW 7 11 29.98 1015 10 16.0934 N/A
3:56 pm 15:56 Cloudy 76 24.4 70 21.1 82 82 W 9 15 29.97 1015 10 16.0934 0.001 0.001
4:34 pm 16:34 Cloudy 77 25 70 21 79 79 WNW 9 15 29.93 1014 10 16.0934 N/A
4:44 pm 16:44 Cloudy 79 26 70 21 74 74 W 8 13 29.93 1014 10 16.0934 N/A
4:56 pm 16:56 Cloudy 77 25 70 21.1 79 79 W 8 13 29.96 1015 10 16.0934 N/A
5:56 pm 17:56 Cloudy 76 24.4 70 21.1 82 82 NW 7 11 29.97 1015 10 16.0934 N/A
6:05 pm 18:05 Cloudy 75 24 70 21 83 83 NW 6 9 29.94 1014 10 16.0934 N/A
6:56 pm 18:56 Cloudy 75 23.9 70 21.1 84 84 NW 5 7 29.97 1015 10 16.0934 N/A
7:34 pm 19:34 Cloudy 73 23 64 18 74 74 N 6 9 29.95 1014 10 16.0934 N/A
7:56 pm 19:56 Cloudy 73 22.8 66 18.9 79 79 N 6 9 29.97 1015 10 16.0934 N/A
8:56 pm 20:56 Cloudy 70 21.1 67 19.4 90 90 NE 3 6 29.98 1015 10 16.0934 N/A
9:56 pm 21:56 Cloudy 71 21.7 69 20.6 94 94 NE 8 13 29.99 1016 10 16.0934 N/A
10:56 pm 22:56 Mostly Cloudy 69 20.6 67 19.4 93 93 NE 13 20 30 1016 10 16.0934 N/A
11:56 pm 23:56 Mostly Cloudy 68 20 66 18.9 93 93 NE 8 13 30.01 1016 10 16.0934 N/A

Powered by AerisWeather